Location: *
(39.6167°S, 171.5333°W)
Time: 04:57:02
(UTC+00:00)

Cosmos 1464 Rocket - Pass Details

Date: 13 May 2021
Orbit: 952 x 1001 km, 82.9° (Epoch: 16 June)

Event Time Altitude Azimuth Distance (km) Brightness Sun altitude
Rises 15:17:51 0° 5° (N) 3,682 7.0 -35.5°
Enters shadow 15:18:01 - 5° (N) 3,624 7.0 -35.5°
Exits shadow 15:26:06 61° 64° (ENE) 1,131 4.4 -33.9°
Maximum altitude 15:26:36 63° 87° (E) 1,113 4.4 -33.8°
Drops below altitude 10° 15:32:57 10° 166° (SSE) 2,803 6.5 -32.6°
Sets 15:35:32 0° 169° (S) 3,761 7.2 -32.1°
